OH2TH Weather Reports


time (UTC)temp
C
wind
direction
speed
KPH
gust
KPH
rain 1hr
cm
rain 24hr
cm
rain mn
cm
humidity
%
barometer
mb
20260506103004 12 126 0.0 0.0 0.00 0.00 0.00 26 101.0
20260506101503 12 312 0.0 0.0 0.00 0.00 0.00 28 101.0
20260506100004 12 67 0.0 0.0 0.00 0.00 0.00 27 101.0
20260506094503 11 104 0.0 0.0 0.00 0.00 0.00 33 101.0
20260506093003 11 141 0.0 0.0 0.00 0.00 0.00 30 101.0
20260506091503 11 319 0.0 0.0 0.00 0.00 0.00 33 101.0
20260506090003 11 70 0.0 0.0 0.00 0.00 0.00 31 101.0
20260506084502 12 42 0.0 0.0 0.00 0.00 0.00 31 101.0
20260506083002 12 319 0.0 0.0 0.00 0.00 0.00 30 101.0
20260506081502 12 357 0.0 0.0 0.00 0.00 0.00 29 101.0
20260506073002 10 302 0.0 0.0 0.00 0.00 0.00 42 101.0
20260506071502 10 55 0.0 0.0 0.00 0.00 0.00 42 101.0
20260506061501 7 147 0.0 0.0 0.00 0.00 0.00 52 101.0
20260506044504 2 350 0.0 0.0 0.00 0.00 0.00 77 101.0
20260506043004 2 142 0.0 0.0 0.00 0.00 0.00 81 101.0
20260506041503 1 304 0.0 0.0 0.00 0.00 0.00 82 101.0
20260506040003 1 191 0.0 0.0 0.00 0.00 0.00 81 101.0
20260506034502 -17 107 0.0 0.0 0.00 0.00 0.00 83 101.0
20260506033001 -17 141 0.0 0.0 0.00 0.00 0.00 81 101.0
20260506031500 0 129 0.0 0.0 0.00 0.00 0.00 83 101.0
20260506030004 0 315 0.0 0.0 0.00 0.00 0.00 84 101.0
20260506024503 0 129 0.0 0.0 0.00 0.00 0.00 82 101.0
20260506023003 -1 129 0.0 0.0 0.00 0.00 0.00 82 101.0
20260506021502 -1 138 0.0 0.0 0.00 0.00 0.00 85 101.0
20260506020001 0 50 0.0 0.0 0.00 0.00 0.00 83 101.0
20260506014501 0 55 0.0 0.0 0.00 0.00 0.00 83 101.0
20260506013005 0 66 0.0 0.0 0.00 0.00 0.00 82 101.0
20260506011504 -17 135 0.0 0.0 0.00 0.00 0.00 80 101.0
20260506010003 0 230 0.0 0.0 0.00 0.00 0.00 83 101.0
20260506004503 1 129 0.0 0.0 0.00 0.00 0.00 80 101.0
20260506003002 1 50 0.0 0.0 0.00 0.00 0.00 81 101.0
20260506001501 1 212 0.0 0.0 0.00 0.00 0.00 79 101.0
20260506000000 1 129 0.0 0.0 0.00 0.00 0.00 76 101.0
20260505234504 1 129 0.0 0.0 0.00 0.00 0.00 79 101.0
20260505233004 1 230 0.0 0.0 0.00 0.00 0.00 76 101.0
20260505231503 1 147 0.0 0.0 0.00 0.00 0.00 74 101.0
20260505230002 1 129 0.0 0.0 0.00 0.00 0.00 76 101.0
20260505224502 2 304 0.0 0.0 0.00 0.00 0.00 75 101.0
20260505223001 2 230 0.0 0.0 0.00 0.00 0.00 72 101.0
20260505221500 2 37 0.0 0.0 0.00 0.00 0.00 73 101.0
20260505220005 2 135 0.0 0.0 0.00 0.00 0.00 74 101.0
20260505214504 3 129 0.0 0.0 0.00 0.00 0.00 70 101.0
20260505213003 3 69 0.0 0.0 0.00 0.00 0.00 68 101.0
20260505211503 3 135 0.0 0.0 0.00 0.00 0.00 70 101.0
20260505210002 3 272 0.0 0.0 0.00 0.00 0.00 67 101.0
20260505204501 4 129 0.0 0.0 0.00 2.26 2.26 64 101.0
20260505203000 4 135 0.0 0.0 0.00 2.26 2.26 62 101.0
20260505201504 4 113 0.0 0.0 0.00 2.26 2.26 63 101.0
20260505200004 4 322 0.0 0.0 0.00 2.26 2.26 62 101.0
20260505194504 5 142 0.0 0.0 0.00 2.26 2.26 59 101.0
20260505193003 5 50 0.0 0.0 0.00 2.26 2.26 58 100.0
20260505191503 5 193 0.0 0.0 0.00 2.26 2.26 56 100.0
20260505190003 5 89 0.0 0.0 0.00 2.26 2.26 52 100.0
20260505184502 6 50 0.0 0.0 0.00 2.26 2.26 49 100.0
20260505183001 6 214 0.0 0.0 0.00 2.26 2.26 47 100.0
20260505181501 7 122 0.0 0.0 0.00 2.26 2.26 43 100.0
20260505180001 7 341 0.0 0.0 0.00 2.26 2.26 43 100.0
20260505174501 8 34 0.0 0.0 0.00 2.26 2.26 43 100.0
20260505173000 8 168 0.0 0.0 0.00 2.26 2.26 41 100.0
20260505171505 8 207 0.0 0.0 0.00 2.26 2.26 39 100.0
20260505170004 9 127 0.0 0.0 0.00 2.26 2.26 38 100.0
20260505164504 9 329 0.0 0.0 0.00 2.26 2.26 37 100.0
20260505163004 9 177 0.0 0.0 0.00 2.26 2.26 37 100.0
20260505161504 10 132 0.0 0.0 0.00 2.26 2.26 36 100.0
20260505153004 11 184 0.0 0.0 0.00 2.97 2.26 28 100.0
20260505151504 11 172 0.0 0.0 0.00 2.97 2.26 33 100.0
20260505124502 13 95 0.0 0.0 0.00 2.97 2.26 36 100.0
20260505123002 13 353 0.0 0.0 0.00 2.97 2.26 36 100.0
20260505121502 13 99 0.0 0.0 0.00 2.97 2.26 40 100.0
20260505120002 13 359 0.0 0.0 0.00 2.97 2.26 40 100.0
20260505114502 13 25 0.0 0.0 0.00 4.42 2.26 37 100.0
20260505113002 13 78 0.0 0.0 0.00 4.42 2.26 40 100.0
20260505111501 13 9 0.0 0.0 0.00 4.42 2.26 35 100.0